Wind_Speed
72 73 73 74 75 76 76 77 77 75 72 71 73 73 74 75 74 75 75 74 74 73 72 71 70 69 68 68 68 68 67 68 68 67 67 67 66 66
76 76 76 76 77 78 78 78 79 78 74 70 72 73 74 74 74 74 74 74 73 72 71 70 69 69 68 68 68 68 68 67 67 67 67 67 67 67
79 79 79 79 80 79 79 79 79 78 76 71 72 73 73 73 73 73 72 71 71 70 70 69 69 68 68 68 68 68 67 68 68 68 68 68 67 67
81 82 81 82 81 81 80 79 78 78 76 73 72 72 72 72 72 71 70 70 70 69 69 70 69 69 69 69 69 69 69 69 69 69 69 69 68 68
83 83 82 82 81 80 79 78 77 77 76 74 71 71 71 71 71 71 70 70 70 70 70 70 70 70 69 69 69 69 69 69 70 70 70 69 69 69
83 82 81 80 79 78 77 75 74 73 72 71 69 68 69 69 69 69 69 69 69 69 69 69 68 68 68 68 68 68 68 68 70 71 71 71 71 71
78 77 76 74 73 72 71 70 69 69 68 67 65 65 65 66 66 67 68 68 68 68 67 67 67 67 67 66 66 67 67 68 68 69 70 71 71 71
70 69 68 67 67 67 67 66 66 65 64 63 62 62 62 63 64 65 66 66 65 65 66 66 66 65 65 66 66 67 67 67 68 69 69 70 71 72
63 62 62 61 62 62 62 62 61 61 61 60 60 59 60 60 62 63 63 63 63 63 63 62 63 64 65 65 65 66 67 67 68 68 68 69 70 71
56 56 55 55 55 56 56 56 56 57 58 58 57 56 56 57 58 58 59 59 60 60 61 61 61 62 63 63 64 65 65 65 65 66 67 68 68 69
50 50 50 50 50 51 51 52 52 52 54 55 55 54 54 54 54 55 55 56 56 57 59 59 58 60 60 61 61 62 62 63 64 65 66 67 68 69
45 46 47 47 46 47 47 47 47 48 49 50 51 51 51 50 51 51 52 54 55 55 56 57 56 58 58 58 59 60 61 62 63 64 65 66 68 69
42 42 42 43 43 43 43 43 43 44 45 45 46 46 47 48 49 51 52 52 53 53 54 55 56 56 57 56 56 57 59 60 61 62 64 65 67 68
39 38 38 38 38 38 39 40 40 41 41 42 43 44 45 47 49 50 51 51 51 52 53 54 54 55 56 55 54 54 56 57 58 59 60 62 64 65
37 36 35 35 36 36 37 37 38 39 40 41 42 43 45 46 48 49 50 50 51 51 51 52 53 54 54 54 54 53 53 53 55 56 58 61 62 63
35 35 34 34 34 34 35 36 37 38 40 41 41 43 44 45 46 47 48 49 49 49 50 51 52 53 53 53 52 50 51 52 53 55 57 58 59 59
33 33 33 33 33 34 35 36 37 38 39 40 40 41 42 43 44 45 46 46 46 46 46 48 50 51 51 50 50 49 50 51 51 53 54 53 53 55
33 32 32 33 33 33 34 35 37 38 38 39 39 40 40 41 42 42 42 43 43 43 44 46 48 49 48 47 47 47 47 48 49 50 51 52 50 51
33 33 33 32 32 33 33 34 35 36 37 37 37 38 38 38 38 39 39 40 41 41 42 43 44 46 45 44 43 45 46 47 48 49 49 50 49 49
33 32 31 31 32 32 33 33 34 34 34 34 34 34 34 34 35 36 37 38 38 39 39 40 42 44 44 43 41 41 44 46 46 46 47 47 47 47
32 31 31 31 32 32 32 32 32 32 32 32 31 31 31 31 32 34 35 35 36 36 37 38 40 42 42 41 39 38 40 43 45 45 44 44 44 42
31 31 31 31 31 31 31 31 30 30 30 30 30 30 30 31 31 32 33 33 34 35 35 36 38 40 40 40 38 37 38 40 43 43 42 42 39 35
30 30 30 30 30 30 29 29 29 29 29 29 29 29 30 30 30 30 31 32 32 33 34 35 36 37 38 38 38 37 37 38 39 38 37 37 34 30
Wind_Direction
285 283 282 282 281 280 279 279 278 278 277 276 276 276 275 274 274 274 274 274 274 274 274 274 274 274 273 272 272 271 271 270 269 267 265 265 264 263
284 283 282 281 280 279 279 278 277 277 276 275 274 274 274 273 274 274 274 273 273 273 273 273 273 273 272 272 272 271 270 269 268 266 265 264 263 262
284 282 281 280 279 279 278 277 277 277 276 275 274 273 273 274 273 273 273 273 273 273 273 273 273 272 272 271 271 271 270 269 267 266 265 264 263 262
284 282 281 279 279 278 277 276 276 275 275 274 273 273 273 273 273 273 272 273 272 272 272 272 272 272 272 271 271 270 270 268 267 266 265 264 263 261
283 282 280 279 278 277 276 276 275 274 274 274 272 272 272 272 272 272 272 272 272 272 272 271 271 272 272 271 271 271 269 268 267 266 265 264 263 262
283 281 279 278 277 277 276 276 275 275 274 274 273 272 272 272 272 272 271 271 271 271 272 272 272 272 272 271 271 271 270 268 267 266 265 264 263 263
284 282 281 279 278 277 276 276 275 275 274 274 274 273 272 272 271 270 270 271 271 271 271 271 271 272 272 272 271 271 270 269 268 267 266 265 264 263
285 283 281 280 278 277 276 275 275 275 274 274 274 273 273 272 271 270 271 271 271 271 271 271 271 272 272 272 271 271 270 269 268 267 267 266 265 264
287 284 283 281 279 278 277 276 275 275 275 275 274 274 273 273 272 272 271 271 271 272 272 273 272 272 272 272 271 271 270 270 269 268 268 267 265 264
289 287 286 284 282 280 279 278 277 277 276 275 275 274 274 273 273 273 272 272 273 273 274 274 273 273 272 272 271 271 271 270 270 269 268 267 266 265
291 289 288 286 284 282 280 279 278 277 276 276 276 276 276 275 274 274 274 274 274 274 274 275 274 273 273 273 272 272 271 270 270 269 269 268 267 266
293 291 290 288 286 284 282 281 279 277 276 276 276 276 276 276 276 275 275 275 276 276 276 276 275 274 274 273 273 272 272 272 271 270 270 269 268 268
296 294 292 290 288 286 285 284 282 279 277 277 277 277 277 277 277 277 277 277 277 277 276 275 275 275 275 274 273 273 273 272 271 271 270 270 269 269
300 297 295 293 291 289 288 286 284 282 281 280 279 278 278 277 278 278 278 278 278 278 277 277 276 276 276 275 274 273 272 272 271 270 270 269 269 270
302 300 297 295 293 292 291 289 288 286 285 283 282 281 279 279 279 279 279 279 280 279 278 278 277 277 277 277 276 274 273 271 271 270 269 269 270 270
304 302 300 298 296 293 292 292 291 290 288 287 285 284 282 282 282 281 280 280 280 280 279 279 278 278 278 278 277 275 274 273 271 270 270 271 271 270
303 303 301 300 298 296 295 294 294 293 291 290 288 287 285 284 283 282 282 281 281 280 280 279 279 280 279 279 278 277 276 275 274 273 272 271 271 271
306 305 304 303 301 299 297 296 296 295 293 291 290 288 287 286 285 284 283 283 283 283 282 282 282 282 282 281 281 280 278 277 276 275 274 274 273 273
308 307 306 305 304 302 300 300 299 298 297 294 292 291 289 288 287 286 285 285 285 285 284 284 284 284 283 282 281 281 281 279 278 278 278 278 277 275
310 309 308 307 306 305 304 303 302 302 300 298 296 295 293 291 290 289 288 288 288 287 287 286 285 285 285 285 283 282 282 281 281 281 280 280 280 279
312 312 311 310 308 308 307 306 305 304 303 302 300 299 298 296 294 293 292 292 291 290 289 288 287 287 287 287 286 284 282 282 283 284 283 282 281 278
313 313 313 312 312 311 310 308 307 307 307 305 303 302 301 300 299 298 296 295 294 293 292 290 290 290 290 290 289 287 284 284 286 287 286 285 282 277
314 314 314 314 313 313 311 310 310 310 309 307 306 305 305 304 303 301 300 299 298 297 296 295 294 294 293 292 291 290 288 288 287 287 286 283 280 276
Height
5623 5617 5613 5608 5603 5599 5594 5590 5588 5590 5594 5595 5589 5587 5582 5579 5577 5575 5575 5574 5573 5573 5573 5574 5574 5573 5573 5573 5573 5573 5573 5573 5574 5576 5577 5579 5582 5584
5602 5596 5592 5586 5581 5576 5572 5568 5564 5563 5568 5576 5569 5565 5560 5558 5556 5554 5553 5552 5552 5552 5552 5552 5552 5553 5552 5552 5552 5552 5553 5553 5554 5556 5557 5559 5561 5564
5579 5573 5569 5562 5557 5553 5548 5545 5542 5539 5541 5551 5546 5543 5539 5537 5535 5533 5532 5531 5531 5531 5531 5531 5531 5531 5531 5531 5531 5532 5532 5533 5534 5535 5537 5539 5541 5544
5554 5548 5544 5537 5533 5529 5524 5522 5519 5516 5516 5523 5524 5520 5518 5516 5513 5512 5511 5511 5511 5510 5509 5509 5510 5510 5510 5510 5510 5510 5511 5512 5513 5514 5516 5518 5520 5522
5528 5522 5517 5511 5508 5504 5500 5498 5496 5493 5493 5496 5500 5498 5496 5494 5492 5491 5490 5489 5489 5488 5488 5488 5488 5488 5488 5488 5488 5489 5489 5490 5491 5493 5494 5496 5499 5501
5501 5495 5491 5485 5482 5479 5476 5475 5472 5471 5470 5471 5475 5475 5473 5472 5470 5470 5468 5467 5467 5467 5467 5467 5467 5467 5467 5466 5467 5467 5467 5468 5469 5470 5472 5474 5476 5479
5475 5470 5465 5461 5458 5455 5453 5452 5450 5449 5449 5449 5452 5452 5452 5450 5450 5447 5447 5447 5447 5446 5446 5446 5446 5446 5445 5445 5444 5445 5445 5445 5446 5448 5449 5451 5453 5455
5452 5447 5442 5438 5435 5432 5431 5430 5429 5428 5429 5429 5430 5431 5431 5429 5427 5426 5426 5426 5427 5428 5425 5426 5425 5426 5425 5423 5423 5422 5423 5423 5424 5425 5426 5428 5429 5432
5429 5425 5422 5419 5415 5413 5411 5410 5409 5409 5409 5409 5410 5411 5410 5408 5406 5406 5405 5406 5406 5405 5404 5406 5404 5404 5403 5402 5401 5401 5401 5401 5401 5402 5403 5404 5406 5408
5410 5406 5403 5401 5397 5394 5393 5392 5392 5391 5390 5389 5391 5391 5390 5388 5387 5387 5386 5386 5387 5386 5384 5385 5384 5383 5381 5381 5379 5379 5379 5379 5379 5380 5380 5381 5382 5383
5394 5390 5386 5384 5381 5378 5376 5376 5376 5375 5372 5371 5372 5371 5371 5370 5369 5368 5367 5367 5368 5367 5365 5365 5365 5362 5361 5361 5359 5358 5357 5357 5357 5357 5357 5358 5358 5359
5380 5376 5372 5368 5366 5363 5361 5360 5359 5359 5357 5356 5355 5354 5353 5352 5351 5351 5350 5349 5349 5349 5346 5345 5344 5341 5342 5342 5340 5338 5337 5336 5335 5335 5335 5335 5334 5335
5367 5363 5359 5355 5352 5349 5347 5345 5344 5343 5342 5341 5340 5339 5338 5336 5335 5333 5333 5332 5331 5330 5328 5326 5325 5323 5322 5323 5322 5319 5317 5316 5314 5314 5313 5312 5311 5311
5354 5350 5346 5343 5340 5337 5334 5332 5330 5329 5328 5327 5326 5325 5323 5321 5319 5317 5316 5314 5313 5312 5309 5307 5306 5304 5302 5302 5303 5301 5298 5296 5294 5293 5292 5290 5289 5289
5342 5339 5335 5332 5329 5326 5323 5320 5318 5316 5315 5313 5312 5310 5308 5306 5304 5301 5299 5297 5296 5294 5291 5289 5287 5285 5283 5283 5283 5282 5280 5278 5275 5273 5272 5270 5270 5268
5332 5329 5325 5321 5318 5315 5313 5310 5307 5304 5302 5300 5298 5296 5293 5291 5288 5286 5283 5281 5279 5277 5274 5271 5268 5266 5265 5264 5263 5263 5261 5259 5257 5253 5251 5251 5250 5248
5323 5320 5316 5312 5309 5305 5302 5299 5296 5293 5290 5287 5284 5282 5279 5276 5273 5271 5268 5266 5264 5261 5258 5254 5251 5249 5247 5246 5245 5244 5241 5239 5236 5233 5231 5232 5232 5229
5315 5311 5307 5303 5299 5295 5292 5289 5285 5281 5278 5274 5271 5268 5265 5262 5260 5257 5254 5251 5249 5246 5243 5239 5235 5232 5230 5229 5228 5224 5222 5220 5217 5215 5212 5212 5213 5211
5306 5302 5298 5294 5290 5286 5282 5279 5275 5270 5266 5262 5259 5256 5252 5249 5246 5243 5240 5238 5235 5232 5229 5225 5221 5217 5214 5214 5212 5208 5204 5202 5199 5197 5194 5192 5192 5191
5297 5293 5289 5285 5281 5277 5272 5268 5264 5260 5256 5251 5248 5244 5241 5237 5234 5231 5228 5225 5222 5219 5216 5212 5207 5202 5199 5198 5197 5195 5188 5184 5181 5180 5177 5174 5172 5170
5290 5285 5280 5276 5272 5267 5263 5259 5255 5250 5246 5242 5238 5234 5230 5227 5223 5220 5217 5213 5210 5206 5203 5199 5194 5189 5185 5182 5181 5180 5175 5169 5165 5162 5160 5157 5154 5152
5282 5277 5273 5268 5263 5259 5255 5250 5246 5242 5237 5233 5229 5225 5221 5217 5214 5210 5206 5202 5198 5195 5191 5187 5182 5177 5172 5168 5166 5164 5161 5156 5151 5147 5143 5140 5135 5135
5274 5270 5265 5260 5256 5251 5247 5242 5238 5234 5229 5225 5221 5217 5213 5208 5204 5200 5196 5192 5188 5183 5179 5174 5170 5165 5160 5156 5152 5149 5146 5142 5137 5134 5130 5125 5122 5121